| time (UTC) | temp F | wind direction | speed MPH | gust MPH | rain 1hr in | rain 24hr in | rain mn in | humidity % | barometer mb |
| 20260506194518 | 54 | 155 | 0.0 | 2.0 | 0.00 | 0.00 | 0.00 | 72 | 1011.2 |
| 20260506194019 | 54 | 155 | 0.0 | 1.0 | 0.00 | 0.00 | 0.00 | 73 | 1011.2 |
| 20260506193743 | 54 | 155 | 0.0 | 1.0 | 0.00 | 0.00 | 0.00 | 73 | 1011.2 |
| 20260506193017 | 54 | 155 | 0.0 | 1.0 | 0.00 | 0.00 | 0.00 | 73 | 1011.1 |
| 20260506192742 | 54 | 155 | 0.0 | 0.0 | 0.00 | 0.00 | 0.00 | 73 | 1011.1 |
| 20260506192015 | 54 | 155 | 0.0 | 0.0 | 0.00 | 0.00 | 0.00 | 73 | 1011.1 |
| 20260506191510 | 54 | 155 | 0.0 | 0.0 | 0.00 | 0.00 | 0.00 | 73 | 1011.0 |
| 20260506191008 | 54 | 155 | 0.0 | 0.0 | 0.00 | 0.00 | 0.00 | 73 | 1010.9 |
| 20260506190506 | 54 | 155 | 0.0 | 1.0 | 0.00 | 0.00 | 0.00 | 73 | 1010.7 |
| 20260506190223 | 54 | 155 | 0.0 | 1.0 | 0.00 | 0.00 | 0.00 | 72 | 1010.7 |
| 20260506185502 | 54 | 156 | 0.0 | 0.0 | 0.00 | 0.00 | 0.00 | 72 | 1010.6 |
| 20260506185000 | 54 | 155 | 0.0 | 0.0 | 0.00 | 0.00 | 0.00 | 72 | 1010.6 |
| 20260506184458 | 54 | 155 | 0.0 | 0.0 | 0.00 | 0.00 | 0.00 | 72 | 1010.5 |
| 20260506183956 | 54 | 155 | 0.0 | 0.0 | 0.00 | 0.00 | 0.00 | 72 | 1010.5 |
| 20260506183456 | 54 | 155 | 0.0 | 0.0 | 0.00 | 0.00 | 0.00 | 73 | 1010.4 |
| 20260506182956 | 54 | 155 | 0.0 | 0.0 | 0.00 | 0.00 | 0.00 | 73 | 1010.3 |
| 20260506182455 | 54 | 155 | 0.0 | 1.0 | 0.00 | 0.00 | 0.00 | 73 | 1010.3 |
| 20260506181954 | 54 | 155 | 0.0 | 1.0 | 0.00 | 0.00 | 0.00 | 73 | 1010.2 |
| 20260506181450 | 54 | 157 | 0.0 | 1.0 | 0.00 | 0.00 | 0.00 | 72 | 1010.2 |
| 20260506180950 | 54 | 95 | 0.0 | 0.0 | 0.00 | 0.00 | 0.00 | 73 | 1010.2 |
| 20260506180709 | 55 | 95 | 0.0 | 0.0 | 0.00 | 0.00 | 0.00 | 72 | 1010.1 |
| 20260506175946 | 55 | 95 | 0.0 | 0.0 | 0.00 | 0.00 | 0.00 | 73 | 1010.2 |
| 20260506175444 | 55 | 96 | 0.0 | 0.0 | 0.00 | 0.00 | 0.00 | 72 | 1010.0 |
| 20260506174942 | 55 | 94 | 0.0 | 2.0 | 0.00 | 0.00 | 0.00 | 72 | 1010.1 |
| 20260506174442 | 55 | 94 | 0.0 | 2.0 | 0.00 | 0.00 | 0.00 | 71 | 1010.0 |
| 20260506174428 | 55 | 93 | 1.0 | 3.0 | 0.00 | 0.00 | 0.00 | 71 | 1009.9 |
| 20260506173441 | 55 | 93 | 1.0 | 4.0 | 0.00 | 0.00 | 0.00 | 69 | 1009.8 |
| 20260506172942 | 55 | 113 | 1.0 | 6.0 | 0.00 | 0.00 | 0.00 | 68 | 1009.7 |
| 20260506172702 | 55 | 28 | 1.0 | 6.0 | 0.00 | 0.00 | 0.00 | 67 | 1009.5 |
| 20260506171942 | 56 | 84 | 1.0 | 5.0 | 0.00 | 0.00 | 0.00 | 66 | 1009.6 |
| 20260506171443 | 56 | 86 | 1.0 | 8.0 | 0.00 | 0.00 | 0.00 | 67 | 1009.5 |
| 20260506170942 | 56 | 49 | 2.0 | 8.0 | 0.00 | 0.00 | 0.00 | 65 | 1009.6 |
| 20260506170444 | 56 | 103 | 2.0 | 10.0 | 0.00 | 0.00 | 0.00 | 66 | 1009.6 |
| 20260506170208 | 56 | 9 | 3.0 | 10.0 | 0.00 | 0.00 | 0.00 | 65 | 1009.6 |
| 20260506165442 | 56 | 55 | 3.0 | 9.0 | 0.00 | 0.00 | 0.00 | 64 | 1009.4 |
| 20260506164939 | 56 | 48 | 3.0 | 9.0 | 0.00 | 0.00 | 0.00 | 65 | 1009.4 |
| 20260506164440 | 56 | 71 | 2.0 | 6.0 | 0.00 | 0.00 | 0.00 | 65 | 1009.4 |
| 20260506163940 | 56 | 55 | 2.0 | 7.0 | 0.00 | 0.00 | 0.00 | 66 | 1009.5 |
| 20260506163440 | 56 | 20 | 2.0 | 7.0 | 0.00 | 0.00 | 0.00 | 65 | 1009.4 |
| 20260506162938 | 56 | 51 | 2.0 | 7.0 | 0.00 | 0.00 | 0.00 | 67 | 1009.5 |
| 20260506162433 | 56 | 355 | 2.0 | 7.0 | 0.00 | 0.00 | 0.00 | 65 | 1009.4 |
| 20260506161928 | 56 | 63 | 2.0 | 10.0 | 0.00 | 0.00 | 0.00 | 66 | 1009.4 |
| 20260506161423 | 56 | 11 | 3.0 | 10.0 | 0.00 | 0.00 | 0.00 | 65 | 1009.4 |
| 20260506160915 | 56 | 330 | 4.0 | 12.0 | 0.00 | 0.00 | 0.00 | 65 | 1009.5 |
| 20260506160411 | 56 | 18 | 4.0 | 12.0 | 0.00 | 0.00 | 0.00 | 64 | 1009.4 |
| 20260506155904 | 56 | 82 | 3.0 | 9.0 | 0.00 | 0.00 | 0.00 | 65 | 1009.4 |
| 20260506155357 | 56 | 96 | 2.0 | 9.0 | 0.00 | 0.00 | 0.00 | 66 | 1009.5 |
| 20260506154851 | 56 | 84 | 2.0 | 8.0 | 0.00 | 0.00 | 0.00 | 65 | 1009.5 |
| 20260506154345 | 56 | 336 | 2.0 | 10.0 | 0.00 | 0.00 | 0.00 | 65 | 1009.5 |
| 20260506154101 | 56 | 0 | 3.0 | 10.0 | 0.00 | 0.00 | 0.00 | 64 | 1009.4 |
| 20260506153333 | 56 | 5 | 3.0 | 11.0 | 0.00 | 0.00 | 0.00 | 63 | 1009.5 |
| 20260506152827 | 57 | 15 | 2.0 | 14.0 | 0.00 | 0.00 | 0.00 | 64 | 1009.5 |
| 20260506152321 | 57 | 35 | 4.0 | 14.0 | 0.00 | 0.00 | 0.00 | 62 | 1009.4 |
| 20260506151815 | 57 | 26 | 4.0 | 13.0 | 0.00 | 0.00 | 0.00 | 60 | 1009.4 |
| 20260506151310 | 58 | 154 | 3.0 | 9.0 | 0.00 | 0.00 | 0.00 | 62 | 1009.4 |
| 20260506150803 | 58 | 305 | 3.0 | 10.0 | 0.00 | 0.00 | 0.00 | 63 | 1009.2 |
| 20260506150515 | 58 | 17 | 4.0 | 10.0 | 0.00 | 0.00 | 0.00 | 61 | 1009.3 |
| 20260506145749 | 58 | 91 | 4.0 | 11.0 | 0.00 | 0.00 | 0.00 | 60 | 1009.3 |
| 20260506145243 | 58 | 65 | 4.0 | 11.0 | 0.00 | 0.00 | 0.00 | 62 | 1009.2 |
| 20260506144737 | 58 | 119 | 4.0 | 11.0 | 0.00 | 0.00 | 0.00 | 59 | 1009.1 |
| 20260506144233 | 58 | 35 | 3.0 | 9.0 | 0.00 | 0.00 | 0.00 | 58 | 1009.1 |
| 20260506143727 | 58 | 14 | 3.0 | 9.0 | 0.00 | 0.00 | 0.00 | 57 | 1009.1 |
| 20260506143220 | 58 | 61 | 4.0 | 11.0 | 0.00 | 0.00 | 0.00 | 58 | 1009.0 |
| 20260506142713 | 58 | 72 | 4.0 | 11.0 | 0.00 | 0.00 | 0.00 | 57 | 1009.1 |
| 20260506142209 | 58 | 11 | 4.0 | 15.0 | 0.00 | 0.00 | 0.00 | 58 | 1009.1 |
| 20260506141701 | 58 | 9 | 4.0 | 15.0 | 0.00 | 0.00 | 0.00 | 57 | 1009.1 |
| 20260506141156 | 58 | 17 | 4.0 | 10.0 | 0.00 | 0.00 | 0.00 | 58 | 1009.1 |
| 20260506140909 | 58 | 23 | 4.0 | 10.0 | 0.00 | 0.00 | 0.00 | 61 | 1009.2 |
| 20260506140403 | 58 | 342 | 4.0 | 9.0 | 0.00 | 0.00 | 0.00 | 63 | 1009.2 |
| 20260506135637 | 58 | 45 | 4.0 | 11.0 | 0.00 | 0.00 | 0.00 | 63 | 1009.2 |
| 20260506135132 | 59 | 41 | 5.0 | 11.0 | 0.00 | 0.00 | 0.00 | 65 | 1009.2 |
| 20260506134626 | 59 | 355 | 5.0 | 12.0 | 0.00 | 0.00 | 0.00 | 62 | 1009.0 |
| 20260506134119 | 59 | 0 | 5.0 | 12.0 | 0.00 | 0.00 | 0.00 | 62 | 1009.1 |
| 20260506133614 | 60 | 5 | 4.0 | 12.0 | 0.00 | 0.00 | 0.00 | 60 | 1009.0 |
| 20260506133327 | 60 | 5 | 4.0 | 12.0 | 0.00 | 0.00 | 0.00 | 62 | 1009.1 |
| 20260506132601 | 60 | 48 | 4.0 | 13.0 | 0.00 | 0.00 | 0.00 | 63 | 1009.0 |
| 20260506132327 | 60 | 39 | 5.0 | 13.0 | 0.00 | 0.00 | 0.00 | 62 | 1009.0 |
| 20260506131549 | 60 | 0 | 5.0 | 13.0 | 0.00 | 0.00 | 0.00 | 60 | 1008.9 |
| 20260506131249 | 60 | 335 | 6.0 | 16.0 | 0.00 | 0.00 | 0.00 | 62 | 1008.9 |
| 20260506131135 | 60 | 313 | 4.0 | 11.0 | 0.00 | 0.00 | 0.00 | 63 | 1008.8 |
| 20260506130040 | 60 | 78 | 5.0 | 16.0 | 0.00 | 0.00 | 0.00 | 61 | 1008.9 |
| 20260506125539 | 60 | 344 | 5.0 | 12.0 | 0.00 | 0.00 | 0.00 | 62 | 1008.8 |
| 20260506125039 | 60 | 16 | 4.0 | 12.0 | 0.00 | 0.00 | 0.00 | 62 | 1008.7 |
| 20260506124539 | 60 | 9 | 6.0 | 12.0 | 0.00 | 0.00 | 0.00 | 64 | 1008.7 |
| 20260506124039 | 60 | 5 | 6.0 | 12.0 | 0.00 | 0.00 | 0.00 | 64 | 1008.7 |
| 20260506123540 | 59 | 5 | 4.0 | 12.0 | 0.00 | 0.00 | 0.00 | 64 | 1008.7 |
| 20260506123040 | 59 | 347 | 4.0 | 12.0 | 0.00 | 0.00 | 0.00 | 66 | 1008.7 |
| 20260506122540 | 58 | 17 | 4.0 | 11.0 | 0.00 | 0.00 | 0.00 | 67 | 1008.6 |
| 20260506122040 | 58 | 5 | 4.0 | 11.0 | 0.00 | 0.00 | 0.00 | 65 | 1008.7 |
| 20260506121541 | 58 | 0 | 6.0 | 14.0 | 0.00 | 0.00 | 0.00 | 64 | 1008.6 |
| 20260506121039 | 58 | 9 | 6.0 | 14.0 | 0.00 | 0.00 | 0.00 | 60 | 1008.7 |
| 20260506120539 | 58 | 343 | 7.0 | 14.0 | 0.00 | 0.00 | 0.00 | 63 | 1008.7 |
| 20260506120039 | 58 | 319 | 7.0 | 15.0 | 0.00 | 0.00 | 0.00 | 60 | 1008.5 |
| 20260506115803 | 60 | 348 | 7.0 | 15.0 | 0.00 | 0.00 | 0.00 | 59 | 1008.6 |
| 20260506115037 | 60 | 346 | 8.0 | 16.0 | 0.00 | 0.00 | 0.00 | 61 | 1008.5 |
| 20260506114535 | 60 | 27 | 8.0 | 16.0 | 0.00 | 0.00 | 0.00 | 58 | 1008.6 |
| 20260506114035 | 60 | 5 | 7.0 | 16.0 | 0.00 | 0.00 | 0.00 | 64 | 1008.4 |
| 20260506113529 | 60 | 327 | 7.0 | 14.0 | 0.00 | 0.00 | 0.00 | 64 | 1008.4 |
| 20260506113248 | 60 | 41 | 6.0 | 14.0 | 0.00 | 0.00 | 0.00 | 65 | 1008.4 |
| 20260506112517 | 60 | 341 | 7.0 | 14.0 | 0.00 | 0.00 | 0.00 | 66 | 1008.4 |
| 20260506112013 | 60 | 24 | 6.0 | 13.0 | 0.00 | 0.00 | 0.00 | 65 | 1008.5 |
| 20260506111513 | 60 | 15 | 5.0 | 11.0 | 0.00 | 0.00 | 0.00 | 64 | 1008.4 |
| 20260506111013 | 60 | 20 | 4.0 | 10.0 | 0.00 | 0.00 | 0.00 | 66 | 1008.4 |
| 20260506110513 | 59 | 18 | 5.0 | 12.0 | 0.00 | 0.00 | 0.00 | 66 | 1008.3 |
| 20260506110010 | 58 | 36 | 5.0 | 12.0 | 0.00 | 0.00 | 0.00 | 66 | 1008.2 |
| 20260506105511 | 57 | 350 | 4.0 | 11.0 | 0.00 | 0.00 | 0.00 | 66 | 1008.4 |
| 20260506105010 | 57 | 336 | 4.0 | 9.0 | 0.00 | 0.00 | 0.00 | 66 | 1008.4 |
| 20260506104511 | 57 | 355 | 4.0 | 11.0 | 0.00 | 0.00 | 0.00 | 66 | 1008.5 |
| 20260506104009 | 57 | 44 | 5.0 | 12.0 | 0.00 | 0.00 | 0.00 | 66 | 1008.4 |
| 20260506103509 | 57 | 30 | 5.0 | 12.0 | 0.00 | 0.00 | 0.00 | 66 | 1008.4 |
| 20260506103231 | 57 | 351 | 5.0 | 11.0 | 0.00 | 0.00 | 0.00 | 65 | 1008.4 |
| 20260506102509 | 58 | 17 | 4.0 | 11.0 | 0.00 | 0.00 | 0.00 | 66 | 1008.4 |
| 20260506102009 | 58 | 336 | 5.0 | 12.0 | 0.00 | 0.00 | 0.00 | 67 | 1008.3 |
| 20260506101509 | 57 | 313 | 5.0 | 13.0 | 0.00 | 0.00 | 0.00 | 68 | 1008.4 |
| 20260506101448 | 58 | 355 | 6.0 | 13.0 | 0.00 | 0.00 | 0.00 | 69 | 1008.3 |
| 20260506100509 | 58 | 335 | 6.0 | 15.0 | 0.00 | 0.00 | 0.00 | 69 | 1008.5 |
| 20260506100009 | 58 | 333 | 5.0 | 15.0 | 0.00 | 0.00 | 0.00 | 71 | 1008.4 |
| 20260506095508 | 58 | 348 | 5.0 | 13.0 | 0.00 | 0.00 | 0.00 | 73 | 1008.4 |
| 20260506095009 | 58 | 342 | 5.0 | 12.0 | 0.00 | 0.00 | 0.00 | 73 | 1008.3 |
| 20260506094508 | 58 | 336 | 5.0 | 13.0 | 0.00 | 0.00 | 0.00 | 73 | 1008.4 |
| 20260506094225 | 58 | 344 | 6.0 | 15.0 | 0.00 | 0.00 | 0.00 | 73 | 1008.3 |
| 20260506093502 | 58 | 348 | 6.0 | 15.0 | 0.00 | 0.00 | 0.00 | 72 | 1008.3 |
| 20260506093003 | 58 | 5 | 5.0 | 15.0 | 0.00 | 0.00 | 0.00 | 73 | 1008.3 |
| 20260506092503 | 58 | 23 | 5.0 | 12.0 | 0.00 | 0.00 | 0.00 | 75 | 1008.4 |
| 20260506092004 | 57 | 355 | 4.0 | 12.0 | 0.00 | 0.00 | 0.00 | 75 | 1008.3 |
| 20260506091503 | 57 | 329 | 4.0 | 11.0 | 0.00 | 0.00 | 0.00 | 76 | 1008.2 |
| 20260506091002 | 57 | 355 | 4.0 | 11.0 | 0.00 | 0.00 | 0.00 | 75 | 1008.2 |
| 20260506090503 | 56 | 347 | 5.0 | 12.0 | 0.00 | 0.00 | 0.00 | 75 | 1008.2 |
| 20260506090002 | 56 | 350 | 5.0 | 12.0 | 0.00 | 0.00 | 0.00 | 76 | 1008.1 |
| 20260506085723 | 56 | 337 | 6.0 | 14.0 | 0.00 | 0.00 | 0.00 | 76 | 1008.2 |
| 20260506085002 | 56 | 355 | 7.0 | 15.0 | 0.00 | 0.00 | 0.00 | 76 | 1008.2 |
| 20260506084731 | 56 | 34 | 6.0 | 15.0 | 0.00 | 0.00 | 0.00 | 77 | 1008.2 |
| 20260506084221 | 56 | 351 | 6.0 | 13.0 | 0.00 | 0.00 | 0.00 | 78 | 1008.2 |
| 20260506083502 | 56 | 348 | 6.0 | 13.0 | 0.00 | 0.00 | 0.00 | 79 | 1008.1 |
| 20260506083003 | 55 | 350 | 6.0 | 13.0 | 0.00 | 0.00 | 0.00 | 80 | 1008.1 |
| 20260506082725 | 55 | 346 | 5.0 | 12.0 | 0.00 | 0.00 | 0.00 | 81 | 1007.9 |
| 20260506082001 | 55 | 21 | 6.0 | 14.0 | 0.00 | 0.00 | 0.00 | 82 | 1008.0 |
| 20260506081500 | 54 | 342 | 6.0 | 14.0 | 0.00 | 0.00 | 0.00 | 82 | 1008.0 |
| 20260506080956 | 54 | 320 | 6.0 | 14.0 | 0.00 | 0.00 | 0.00 | 83 | 1008.0 |
| 20260506080447 | 54 | 0 | 5.0 | 12.0 | 0.00 | 0.00 | 0.00 | 83 | 1008.0 |
| 20260506073415 | 53 | 350 | 4.0 | 10.0 | 0.00 | 0.00 | 0.00 | 86 | 1008.1 |
| 20260506072916 | 53 | 327 | 3.0 | 10.0 | 0.00 | 0.00 | 0.00 | 87 | 1007.9 |
| 20260506072414 | 53 | 0 | 4.0 | 12.0 | 0.00 | 0.00 | 0.00 | 87 | 1007.8 |
| 20260506071914 | 52 | 346 | 5.0 | 12.0 | 0.00 | 0.00 | 0.00 | 87 | 1007.9 |
| 20260506071413 | 52 | 26 | 5.0 | 11.0 | 0.00 | 0.00 | 0.00 | 88 | 1007.9 |
| 20260506070914 | 52 | 323 | 5.0 | 11.0 | 0.00 | 0.00 | 0.00 | 89 | 1007.9 |
| 20260506070412 | 52 | 340 | 5.0 | 12.0 | 0.00 | 0.00 | 0.00 | 89 | 1007.9 |
| 20260506061954 | 50 | 347 | 2.0 | 11.0 | 0.00 | 0.00 | 0.00 | 93 | 1007.7 |
| 20260506061222 | 50 | 355 | 2.0 | 8.0 | 0.00 | 0.00 | 0.00 | 93 | 1007.7 |
| 20260506060718 | 50 | 5 | 2.0 | 8.0 | 0.00 | 0.00 | 0.00 | 93 | 1007.7 |
| 20260506060210 | 50 | 355 | 2.0 | 8.0 | 0.00 | 0.00 | 0.00 | 93 | 1007.7 |
| 20260506051128 | 49 | 355 | 3.0 | 9.0 | 0.00 | 0.00 | 0.00 | 93 | 1007.8 |
| 20260506050628 | 49 | 9 | 3.0 | 9.0 | 0.00 | 0.00 | 0.00 | 93 | 1007.8 |
| 20260506050350 | 49 | 13 | 3.0 | 11.0 | 0.00 | 0.00 | 0.00 | 92 | 1007.8 |
| 20260506045128 | 49 | 0 | 2.0 | 10.0 | 0.00 | 0.00 | 0.00 | 92 | 1007.8 |
| 20260506044629 | 49 | 9 | 3.0 | 8.0 | 0.00 | 0.00 | 0.00 | 92 | 1007.9 |
| 20260506044128 | 49 | 355 | 4.0 | 10.0 | 0.00 | 0.00 | 0.00 | 92 | 1007.8 |
| 20260506043626 | 49 | 18 | 4.0 | 10.0 | 0.00 | 0.00 | 0.00 | 92 | 1007.9 |
| 20260506043126 | 49 | 14 | 4.0 | 9.0 | 0.00 | 0.00 | 0.00 | 91 | 1007.9 |
| 20260506042626 | 49 | 334 | 4.0 | 9.0 | 0.00 | 0.00 | 0.00 | 91 | 1007.9 |
| 20260506042125 | 49 | 22 | 3.0 | 10.0 | 0.00 | 0.00 | 0.00 | 91 | 1007.9 |
| 20260506041627 | 49 | 10 | 3.0 | 11.0 | 0.00 | 0.00 | 0.00 | 91 | 1007.9 |
| 20260506041347 | 49 | 9 | 3.0 | 11.0 | 0.00 | 0.00 | 0.00 | 90 | 1007.8 |
| 20260506040843 | 49 | 343 | 4.0 | 10.0 | 0.00 | 0.00 | 0.00 | 90 | 1007.9 |
| 20260506040122 | 49 | 355 | 4.0 | 9.0 | 0.00 | 0.00 | 0.00 | 89 | 1007.8 |
| 20260506035623 | 49 | 355 | 4.0 | 9.0 | 0.00 | 0.00 | 0.00 | 89 | 1007.8 |
| 20260506035122 | 50 | 348 | 5.0 | 11.0 | 0.00 | 0.00 | 0.00 | 88 | 1007.8 |
| 20260506034846 | 50 | 350 | 4.0 | 11.0 | 0.00 | 0.00 | 0.00 | 88 | 1007.8 |
| 20260506034340 | 50 | 334 | 3.0 | 9.0 | 0.00 | 0.00 | 0.00 | 87 | 1007.9 |
| 20260506033623 | 50 | 5 | 5.0 | 12.0 | 0.00 | 0.00 | 0.00 | 87 | 1007.9 |
| 20260506033122 | 50 | 0 | 5.0 | 12.0 | 0.00 | 0.00 | 0.00 | 86 | 1007.9 |
| 20260506032622 | 50 | 5 | 4.0 | 11.0 | 0.00 | 0.00 | 0.00 | 86 | 1007.9 |
| 20260506032122 | 50 | 340 | 3.0 | 10.0 | 0.00 | 0.00 | 0.00 | 86 | 1007.9 |
| 20260506031622 | 50 | 355 | 4.0 | 10.0 | 0.00 | 0.00 | 0.00 | 86 | 1007.9 |
| 20260506031121 | 50 | 17 | 3.0 | 10.0 | 0.00 | 0.00 | 0.00 | 86 | 1007.9 |
| 20260506030839 | 50 | 334 | 3.0 | 10.0 | 0.00 | 0.00 | 0.00 | 86 | 1008.0 |
| 20260506030117 | 50 | 5 | 4.0 | 10.0 | 0.00 | 0.00 | 0.00 | 86 | 1008.0 |
| 20260506025618 | 50 | 19 | 4.0 | 11.0 | 0.00 | 0.00 | 0.00 | 86 | 1008.1 |
| 20260506025340 | 50 | 0 | 4.0 | 11.0 | 0.00 | 0.00 | 0.00 | 86 | 1008.1 |
| 20260506024617 | 50 | 14 | 4.0 | 10.0 | 0.00 | 0.00 | 0.00 | 86 | 1008.1 |
| 20260506024117 | 50 | 5 | 4.0 | 10.0 | 0.00 | 0.00 | 0.00 | 86 | 1008.1 |
| 20260506023617 | 50 | 355 | 4.0 | 11.0 | 0.00 | 0.00 | 0.00 | 86 | 1008.2 |
| 20260506023117 | 50 | 347 | 6.0 | 14.0 | 0.00 | 0.00 | 0.00 | 86 | 1008.1 |
| 20260506022619 | 50 | 355 | 4.0 | 14.0 | 0.00 | 0.00 | 0.00 | 86 | 1008.2 |
| 20260506022117 | 50 | 355 | 4.0 | 11.0 | 0.00 | 0.00 | 0.00 | 86 | 1008.2 |
| 20260506021612 | 50 | 355 | 4.0 | 11.0 | 0.00 | 0.00 | 0.00 | 85 | 1008.2 |
| 20260506021105 | 50 | 5 | 4.0 | 11.0 | 0.00 | 0.00 | 0.00 | 85 | 1008.2 |
| 20260506020557 | 50 | 355 | 3.0 | 10.0 | 0.00 | 0.00 | 0.00 | 85 | 1008.2 |
| 20260506020051 | 50 | 348 | 3.0 | 12.0 | 0.00 | 0.00 | 0.00 | 85 | 1008.2 |
| 20260506015545 | 50 | 348 | 3.0 | 12.0 | 0.00 | 0.00 | 0.00 | 85 | 1008.3 |
| 20260506015305 | 50 | 5 | 2.0 | 8.0 | 0.00 | 0.00 | 0.00 | 85 | 1008.3 |
| 20260506014756 | 50 | 5 | 3.0 | 9.0 | 0.00 | 0.00 | 0.00 | 84 | 1008.3 |
| 20260506014027 | 50 | 351 | 3.0 | 11.0 | 0.00 | 0.00 | 0.00 | 84 | 1008.3 |
| 20260506013521 | 50 | 5 | 4.0 | 11.0 | 0.00 | 0.00 | 0.00 | 84 | 1008.2 |
| 20260506013014 | 50 | 338 | 4.0 | 12.0 | 0.00 | 0.00 | 0.00 | 84 | 1008.2 |
| 20260506012509 | 50 | 355 | 4.0 | 12.0 | 0.00 | 0.00 | 0.00 | 84 | 1008.2 |
| 20260506012002 | 50 | 351 | 4.0 | 10.0 | 0.00 | 0.00 | 0.00 | 84 | 1008.2 |
| 20260506011459 | 50 | 355 | 3.0 | 10.0 | 0.00 | 0.00 | 0.00 | 84 | 1008.3 |
| 20260506010951 | 50 | 355 | 5.0 | 11.0 | 0.00 | 0.00 | 0.00 | 83 | 1008.4 |
| 20260506010707 | 50 | 0 | 5.0 | 11.0 | 0.00 | 0.00 | 0.00 | 83 | 1008.4 |
| 20260506005940 | 50 | 14 | 3.0 | 9.0 | 0.00 | 0.00 | 0.00 | 83 | 1008.5 |
| 20260506005433 | 50 | 355 | 2.0 | 8.0 | 0.00 | 0.00 | 0.00 | 83 | 1008.5 |
| 20260506005150 | 50 | 11 | 4.0 | 12.0 | 0.00 | 0.00 | 0.00 | 83 | 1008.6 |
| 20260506004422 | 50 | 348 | 5.0 | 12.0 | 0.00 | 0.00 | 0.00 | 83 | 1008.7 |
| 20260506004408 | 50 | 23 | 5.0 | 11.0 | 0.00 | 0.00 | 0.00 | 83 | 1008.6 |
| 20260506003408 | 50 | 355 | 4.0 | 9.0 | 0.00 | 0.00 | 0.00 | 83 | 1008.7 |
| 20260506002903 | 50 | 0 | 3.0 | 10.0 | 0.00 | 0.00 | 0.00 | 83 | 1008.7 |
| 20260506002358 | 50 | 341 | 3.0 | 10.0 | 0.00 | 0.00 | 0.00 | 82 | 1008.7 |
| 20260506001852 | 50 | 349 | 3.0 | 8.0 | 0.00 | 0.00 | 0.00 | 82 | 1008.8 |
| 20260506001345 | 50 | 0 | 3.0 | 8.0 | 0.00 | 0.00 | 0.00 | 82 | 1008.8 |
| 20260506000839 | 50 | 5 | 2.0 | 10.0 | 0.00 | 0.00 | 0.00 | 82 | 1008.8 |
| 20260506000607 | 50 | 14 | 2.0 | 10.0 | 0.00 | 0.00 | 0.00 | 82 | 1008.8 |
| 20260505235826 | 50 | 355 | 3.0 | 9.0 | 0.00 | 0.00 | 0.00 | 82 | 1008.8 |
| 20260505235321 | 50 | 355 | 3.0 | 10.0 | 0.00 | 0.00 | 0.00 | 82 | 1008.8 |
| 20260505234815 | 50 | 0 | 4.0 | 10.0 | 0.00 | 0.00 | 0.00 | 82 | 1008.8 |
| 20260505234309 | 50 | 344 | 4.0 | 10.0 | 0.00 | 0.00 | 0.00 | 82 | 1008.9 |
| 20260505233804 | 50 | 355 | 3.0 | 10.0 | 0.00 | 0.00 | 0.00 | 82 | 1008.9 |
| 20260505233519 | 50 | 23 | 3.0 | 9.0 | 0.00 | 0.00 | 0.00 | 82 | 1008.9 |
| 20260505232753 | 50 | 355 | 4.0 | 12.0 | 0.00 | 0.00 | 0.00 | 82 | 1008.9 |
| 20260505232245 | 50 | 17 | 5.0 | 12.0 | 0.00 | 0.00 | 0.00 | 82 | 1009.0 |
| 20260505231746 | 50 | 5 | 4.0 | 11.0 | 0.00 | 0.00 | 0.00 | 82 | 1009.5 |
| 20260505231245 | 50 | 0 | 3.0 | 10.0 | 0.00 | 0.00 | 0.00 | 82 | 1009.0 |
| 20260505231230 | 50 | 350 | 3.0 | 7.0 | 0.00 | 0.00 | 0.00 | 82 | 1009.1 |
| 20260505230245 | 50 | 5 | 3.0 | 11.0 | 0.00 | 0.00 | 0.00 | 81 | 1009.1 |
| 20260505225743 | 50 | 16 | 3.0 | 11.0 | 0.00 | 0.00 | 0.00 | 81 | 1009.1 |
| 20260505225243 | 50 | 333 | 3.0 | 9.0 | 0.00 | 0.00 | 0.00 | 81 | 1009.1 |
| 20260505225005 | 50 | 355 | 3.0 | 9.0 | 0.00 | 0.00 | 0.00 | 81 | 1009.1 |
| 20260505224243 | 50 | 5 | 4.0 | 9.0 | 0.00 | 0.00 | 0.00 | 81 | 1009.0 |
| 20260505223742 | 50 | 355 | 3.0 | 8.0 | 0.00 | 0.00 | 0.00 | 81 | 1009.1 |
| 20260505223247 | 50 | 343 | 4.0 | 10.0 | 0.00 | 0.00 | 0.00 | 81 | 1009.1 |
| 20260505223243 | 50 | 5 | 3.0 | 8.0 | 0.00 | 0.00 | 0.00 | 81 | 1009.2 |
| 20260505222243 | 50 | 331 | 5.0 | 10.0 | 0.00 | 0.00 | 0.00 | 81 | 1009.1 |
| 20260505222232 | 50 | 40 | 4.0 | 10.0 | 0.00 | 0.00 | 0.00 | 81 | 1009.1 |
| 20260505221510 | 51 | 17 | 4.0 | 10.0 | 0.00 | 0.00 | 0.00 | 81 | 1009.1 |
| 20260505220743 | 51 | 355 | 4.0 | 10.0 | 0.00 | 0.00 | 0.00 | 81 | 1009.2 |
| 20260505220243 | 51 | 355 | 4.0 | 9.0 | 0.00 | 0.00 | 0.00 | 82 | 1009.3 |
| 20260505215736 | 51 | 0 | 4.0 | 10.0 | 0.00 | 0.00 | 0.00 | 81 | 1009.0 |
| 20260505215230 | 51 | 10 | 4.0 | 10.0 | 0.00 | 0.00 | 0.00 | 81 | 1009.3 |
| 20260505214724 | 51 | 0 | 3.0 | 9.0 | 0.00 | 0.00 | 0.00 | 81 | 1009.3 |
| 20260505214218 | 51 | 0 | 4.0 | 9.0 | 0.00 | 0.00 | 0.00 | 81 | 1009.2 |
| 20260505213713 | 51 | 29 | 5.0 | 9.0 | 0.00 | 0.00 | 0.00 | 81 | 1009.3 |
| 20260505213657 | 51 | 355 | 4.0 | 11.0 | 0.00 | 0.00 | 0.00 | 80 | 1009.4 |
| 20260505212700 | 51 | 5 | 4.0 | 14.0 | 0.00 | 0.00 | 0.00 | 80 | 1009.3 |
| 20260505212154 | 51 | 350 | 5.0 | 14.0 | 0.00 | 0.00 | 0.00 | 80 | 1009.3 |
| 20260505212134 | 52 | 339 | 4.0 | 11.0 | 0.00 | 0.00 | 0.00 | 79 | 1009.3 |
| 20260505211145 | 52 | 346 | 4.0 | 9.0 | 0.00 | 0.00 | 0.00 | 79 | 1009.3 |
| 20260505210644 | 52 | 15 | 4.0 | 10.0 | 0.00 | 0.00 | 0.00 | 79 | 1009.4 |
| 20260505210144 | 52 | 339 | 4.0 | 10.0 | 0.00 | 0.00 | 0.00 | 79 | 1009.3 |
| 20260505205645 | 52 | 5 | 5.0 | 11.0 | 0.00 | 0.00 | 0.00 | 78 | 1009.4 |
| 20260505205145 | 52 | 350 | 5.0 | 15.0 | 0.00 | 0.00 | 0.00 | 78 | 1009.4 |
| 20260505204905 | 52 | 0 | 6.0 | 15.0 | 0.00 | 0.00 | 0.00 | 78 | 1009.4 |
| 20260505204145 | 52 | 344 | 7.0 | 15.0 | 0.00 | 0.00 | 0.00 | 77 | 1009.4 |
| 20260505203644 | 53 | 5 | 7.0 | 15.0 | 0.00 | 0.00 | 0.00 | 77 | 1009.4 |
| 20260505203400 | 53 | 5 | 7.0 | 14.0 | 0.00 | 0.00 | 0.00 | 77 | 1009.4 |
| 20260505202909 | 53 | 26 | 8.0 | 16.0 | 0.00 | 0.00 | 0.00 | 77 | 1009.4 |
| 20260505202144 | 53 | 20 | 7.0 | 16.0 | 0.00 | 0.00 | 0.00 | 77 | 1009.5 |
| 20260505201644 | 53 | 5 | 5.0 | 13.0 | 0.00 | 0.00 | 0.00 | 77 | 1009.5 |
| 20260505201145 | 53 | 34 | 6.0 | 15.0 | 0.00 | 0.00 | 0.00 | 77 | 1009.5 |
| 20260505200646 | 53 | 21 | 8.0 | 16.0 | 0.00 | 0.00 | 0.00 | 77 | 1009.5 |
| 20260505200144 | 53 | 346 | 8.0 | 16.0 | 0.00 | 0.00 | 0.00 | 77 | 1009.5 |
| 20260505195644 | 53 | 5 | 8.0 | 16.0 | 0.00 | 0.00 | 0.00 | 77 | 1009.4 |
| 20260505195144 | 53 | 22 | 8.0 | 15.0 | 0.00 | 0.00 | 0.00 | 77 | 1009.4 |
| 20260505194638 | 53 | 0 | 7.0 | 15.0 | 0.00 | 0.00 | 0.00 | 77 | 1009.5 |